This demonstration page uses our WeatherBlox Daily Observations layout. Learn more.

Left ArrowRight Arrow

39.01783, -85.05884

Hourly Observations for August 2, 2016

Temp ( °F °C ) Dew Point ( °F °C ) Humidity (%) Winds ( mph kmh ) Pressure ( in mb ) Visibility ( mi km ) Precip ( " mm )
12:52 am 00:52 Mostly Clear 73 22.8 72 22.2 96 96 S 3 6 30.04 1017 8 13 0.00 0.00
1:52 am 01:52 Partly Cloudy 71 21.7 71 21.7 100 100 SSW 3 6 30.04 1017 7 11 0.00 0.00
2:01 am 02:01 Mostly Cloudy with Mist and Fog 72 22 72 22 100 100 Calm 30.03 1017 6 10 0.00 0.00
2:52 am 02:52 Cloudy with Mist and Fog 72 22.2 72 22.2 100 100 Calm 30.04 1017 6 10 0.00 0.00
3:08 am 03:08 Cloudy with Mist and Fog 72 22 72 22 100 100 Calm 30.03 1017 6 10 0.00 0.00
3:52 am 03:52 Cloudy 73 22.8 72 22.2 96 96 NW 5 7 30.04 1017 8 13 0.00 0.00
4:24 am 04:24 Cloudy 73 23 72 22 94 94 Calm 30.03 1017 8 13 0.00 0.00
4:52 am 04:52 Cloudy 73 22.8 72 22.2 96 96 NNW 5 7 30.02 1017 8 13 0.00 0.00
5:35 am 05:35 Partly Cloudy 73 23 72 22 94 94 N 5 7 30.00 1016 7 11 0.00 0.00
5:43 am 05:43 Partly Cloudy with Mist and Fog 73 23 72 22 94 94 NNE 5 7 30.00 1016 4 6 0.00 0.00
5:52 am 05:52 Mostly Clear with Mist and Fog 73 22.8 72 22.2 96 96 NNE 5 7 30.02 1017 4 6 0.00 0.00
6:13 am 06:13 Mostly Clear with Mist and Fog 73 23 72 22 94 94 NNE 3 6 30.03 1017 3 5 0.00 0.00
6:24 am 06:24 Mostly Cloudy with Mist and Fog 73 23 72 22 94 94 NE 5 7 30.03 1017 3 5 0.00 0.00
6:43 am 06:43 Mostly Cloudy with Patchy Fog 73 23 72 22 94 94 Calm 30.03 1017 2 3 0.00 0.00
6:52 am 06:52 Mostly Cloudy with Patchy Fog 73 22.8 73 22.8 100 100 Calm 30.02 1017 2 3 0.00 0.00
7:16 am 07:16 Mostly Cloudy with Patchy Fog 73 23 72 22 94 94 NE 3 6 30.03 1017 2 3 0.00 0.00
7:33 am 07:33 Mostly Cloudy with Mist and Fog 73 23 72 22 94 94 Calm 30.03 1017 2 3 0.00 0.00
7:52 am 07:52 Partly Cloudy with Mist and Fog 74 23.3 73 22.8 97 97 Calm 30.04 1017 2 3 0.00 0.00
8:32 am 08:32 Mostly Cloudy with Mist and Fog 75 24 73 23 94 94 Calm 30.06 1018 2 3 0.00 0.00
8:47 am 08:47 Mostly Cloudy with Mist and Fog 75 24 73 23 94 94 Calm 30.06 1018 5 8 0.00 0.00
8:52 am 08:52 Mostly Cloudy with Mist and Fog 76 24.4 72 22.2 88 88 ENE 3 6 30.05 1018 5 8 0.00 0.00
9:18 am 09:18 Partly Cloudy 79 26 72 22 79 79 E 3 6 30.06 1018 8 13 0.00 0.00
9:52 am 09:52 Partly Cloudy 79 26.1 71 21.7 77 77 Calm 30.05 1018 10 16 0.00 0.00
10:52 am 10:52 Mostly Cloudy 81 27.2 71 21.7 72 72 Calm 30.06 1018 10 16 0.00 0.00
11:52 am 11:52 Mostly Cloudy 82 27.8 71 21.7 69 69 N 3 6 30.06 1018 10 16 0.00 0.00
12:52 pm 12:52 Mostly Cloudy 86 30 71 21.7 61 61 Calm 30.06 1018 10 16 0.00 0.00
1:52 pm 13:52 Partly Cloudy 87 30.6 71 21.7 59 59 Calm 30.05 1018 10 16 0.00 0.00
2:52 pm 14:52 Mostly Cloudy 86 30 68 20 55 55 N 5 7 30.04 1017 10 16 0.00 0.00
3:52 pm 15:52 Mostly Cloudy 88 31.1 69 20.6 54 54 NW 8 13 30.03 1017 10 16 0.00 0.00
4:52 pm 16:52 Partly Cloudy 88 31.1 68 20 52 52 NW 5 7 30.01 1016 10 16 0.00 0.00
5:52 pm 17:52 Mostly Cloudy 88 31.1 68 20 52 52 NNW 6 9 30.00 1016 10 16 0.00 0.00
6:52 pm 18:52 Mostly Cloudy 85 29.4 69 20.6 59 59 N 8 13 30.00 1016 10 16 0.00 0.00
7:52 pm 19:52 Partly Cloudy 84 28.9 69 20.6 61 61 N 7 11 29.98 1015 10 16 0.00 0.00
8:52 pm 20:52 Partly Cloudy 82 27.8 68 20 63 63 N 6 9 29.99 1016 10 16 0.00 0.00
9:52 pm 21:52 Mostly Clear 81 27.2 69 20.6 67 67 N 5 7 30.01 1016 10 16 0.00 0.00
10:52 pm 22:52 Clear 78 25.6 69 20.6 74 74 Calm 30.02 1017 10 16 0.00 0.00
11:52 pm 23:52 Clear 74 23.3 70 21.1 88 88 Calm 30.02 1017 9 14 0.00 0.00

Powered by AerisWeather